Location: Newark
(34.0131°N, 4.3314°W)
Time: 12:12:01
(UTC+00:00)

Vanguard 2 - All Passes

Search period start: 21 October 2019 00:00
Search period end: 31 October 2019 00:00
Orbit: 554 x 2937 km, 32.9° (Epoch: 21 October)

Date Brightness Start Highest point End Pass type
(mag) Time Alt. Az. Time Alt. Az. Time Alt. Az.
21 Oct - 01:13:24 10° W 01:27:08 32° SW 01:41:21 10° SSE visible
21 Oct - 16:54:06 10° SW 17:00:21 47° SSE 17:10:35 10° E daylight
21 Oct - 19:01:14 10° WSW 19:09:51 83° S 19:24:29 10° E visible
21 Oct - 21:09:47 10° W 21:21:18 80° SSW 21:38:37 10° ESE visible
21 Oct - 23:19:34 10° W 23:33:26 54° SSW 23:50:30 10° SE visible
22 Oct - 01:32:46 10° W 01:44:54 24° SW 01:57:24 10° S visible
22 Oct - 15:07:17 10° S 15:10:35 16° SE 15:14:43 10° E daylight
22 Oct - 17:11:40 10° SW 17:18:07 59° SSE 17:29:00 10° E daylight
22 Oct - 19:19:11 10° W 19:28:01 85° S 19:42:55 10° E visible
22 Oct - 21:27:50 10° W 21:39:30 73° SSW 21:56:47 10° ESE visible
22 Oct - 23:37:56 10° W 23:51:26 45° SSW 00:07:46 10° SE visible
23 Oct - 01:53:07 10° WSW 02:02:41 17° SW 02:12:27 10° S visible
23 Oct - 15:23:42 10° SSW 15:27:59 24° SE 15:33:58 10° E daylight
23 Oct - 17:29:24 10° WSW 17:36:00 70° SSE 17:47:23 10° E daylight
23 Oct - 19:37:10 10° W 19:46:12 85° S 20:01:20 10° E visible
23 Oct - 21:45:54 10° W 21:57:39 65° SSW 22:14:46 10° ESE visible
23 Oct - 23:56:31 10° W 00:09:24 36° SW 00:24:39 10° SSE visible
24 Oct - 02:16:29 10° WSW 02:20:31 11° SW 02:24:35 10° SSW night (unlit)
24 Oct - 15:40:45 10° SSW 15:45:31 33° SE 15:52:39 10° E daylight
24 Oct - 17:47:14 10° WSW 17:54:00 78° SSE 18:05:45 10° E visible
24 Oct - 19:55:09 10° W 20:04:22 81° S 20:19:42 10° ESE visible
24 Oct - 22:04:01 10° W 22:15:46 57° SSW 22:32:30 10° SE visible
25 Oct - 00:15:30 10° W 00:27:21 28° SW 00:41:01 10° SSE night (unlit)
25 Oct - 15:58:08 10° SW 16:03:10 45° SSE 16:11:06 10° E daylight
25 Oct - 18:05:08 10° W 18:12:04 83° S 18:24:08 10° E visible
25 Oct - 20:13:09 10° W 20:22:32 75° SSW 20:37:59 10° ESE visible
25 Oct - 22:22:15 10° W 22:33:51 47° SSW 22:49:57 10° SE visible
26 Oct - 00:35:09 10° W 00:45:17 21° SW 00:56:40 10° S night (unlit)
26 Oct - 14:11:13 10° S 14:13:35 14° SE 14:16:18 10° ESE daylight
26 Oct - 16:15:45 10° WSW 16:20:58 58° SSE 16:29:27 10° E daylight
26 Oct - 18:23:04 10° W 18:30:10 85° S 18:42:31 10° E visible
26 Oct - 20:31:09 10° W 20:40:40 67° SSW 20:56:05 10° ESE visible
26 Oct - 22:40:40 10° W 22:51:56 38° SSW 23:07:03 10° SSE visible
27 Oct - 00:56:16 10° WSW 01:03:17 14° SW 01:10:50 10° SSW night (unlit)
27 Oct - 14:27:38 10° SSW 14:31:05 22° SE 14:35:31 10° E daylight
27 Oct - 16:33:31 10° WSW 16:38:51 70° SSE 16:47:44 10° E daylight
27 Oct - 18:41:00 10° W 18:48:16 82° S 19:00:53 10° E visible
27 Oct - 20:49:12 10° W 20:58:47 58° SSW 21:13:58 10° SE visible
27 Oct - 22:59:22 10° W 23:09:59 30° SSW 23:23:42 10° SSE visible
28 Oct - 14:44:45 10° SW 14:48:42 32° SSE 14:54:06 10° E daylight
28 Oct - 16:51:22 10° WSW 16:56:51 79° S 17:06:02 10° E daylight
28 Oct - 18:58:58 10° W 19:06:23 77° S 19:19:11 10° ESE visible
28 Oct - 21:07:20 10° W 21:16:53 49° SSW 21:31:35 10° SE visible
28 Oct - 23:18:36 10° W 23:28:04 23° SW 23:39:42 10° S visible
29 Oct - 15:02:13 10° SW 15:06:25 44° SSE 15:12:26 10° E daylight
29 Oct - 17:09:16 10° W 17:14:52 83° S 17:24:20 10° E daylight
29 Oct - 19:16:55 10° W 19:24:28 69° SSW 19:37:22 10° ESE visible
29 Oct - 21:25:37 10° W 21:34:59 39° SSW 21:48:52 10° SE visible
29 Oct - 23:38:51 10° WSW 23:46:10 16° SW 23:54:37 10° S night (unlit)
30 Oct - 13:14:45 10° S 13:16:47 13° SE 13:18:59 10° ESE daylight
30 Oct - 15:19:54 10° WSW 15:24:15 58° SSE 15:30:41 10° E daylight
30 Oct - 17:27:11 10° W 17:32:54 82° S 17:42:38 10° E daylight
30 Oct - 19:34:55 10° W 19:42:32 59° SSW 19:55:21 10° ESE visible
30 Oct - 21:44:09 10° W 21:53:06 31° SSW 22:05:44 10° SSE visible
